Hourly Data Report for January 10, 2004

All times are specified in Local Standard Time (LST). Add 1 hour to adjust for Daylight Saving Time where and when it is observed.

SHERBROOKE A
QUEBEC

45°26'00.000" N
71°41'00.000" W
241.40 m
7028124
71610
YSC

Download Data

Hourly Data (January 2004)
Hourly Data Report for January 10, 2004
TIME Temp Definition
°C
Dew Point Temp Definition
°C
Rel Hum Definition
%
Wind Dir Definition
10's deg

Wind Spd Definition
km/h
Visibility Definition
km
Stn Press Definition
kPa
Hmdx Definition


Wind Chill Definition


Weather Definition


00:00 -32.8 -37.9 60   0 15.0 99.77      
01:00 -34.0 -39.1 60 21 4 15.0 99.78   -39  
02:00 -31.9 -36.9 61 22 4 15.0 99.82   -37  
03:00 -34.4 -38.7 65   0 15.0 99.83      
04:00 -33.3 -37.5 66 23 6 15.0 99.79   -40  
05:00 -34.4 -39.8 58   0 15.0 99.79      
06:00 -30.8 -36.0 60 25 9 15.0 99.76   -40  
07:00 -30.1 -34.9 63 24 7 15.0 99.75   -37  
08:00 -29.7 -34.6 62 22 7 24.1 99.79   -37 Clear
09:00 -28.2 -33.2 62 26 7 24.1 99.79   -35 Clear
10:00 -27.0 -32.2 61 27 13 24.1 99.79   -37 Mainly Clear
11:00 -25.7 -31.4 59 26 15 24.1 99.72   -36 Clear
12:00 -24.2 -31.7 50 27 20 24.1 99.64   -36 Mainly Clear
13:00 -23.5 -30.8 51 27 26 24.1 99.57   -36 Clear
14:00 -23.1 -30.9 49 28 20 24.1 99.59   -34 Clear
15:00 -22.8 -30.7 48 28 19 24.1 99.62   -34 Clear
16:00 -23.3 -31.0 49 28 15 24.1 99.66   -33 Clear
17:00 -24.5 -31.3 53 26 9 24.1 99.68   -32 Clear
18:00 -25.6 -32.0 55 27 11 15.0 99.69   -34  
19:00 -29.7 -35.1 59 21 6 15.0 99.70   -36  
20:00 -30.6 -35.9 60 19 6 15.0 99.71   -37  
21:00 -31.8 -36.7 62   0 15.0 99.69      
22:00 -32.4 -37.6 60 24 4 15.0 99.68   -37  
23:00 -33.7 -38.6 61   0 15.0 99.63      

Notes on Data Quality.

Legend

  • E = Estimated
  • M = Missing
  • NA = Not Available
Date modified: